Temperature
12 11 11 11 10 10 10 10 9 9 9 9 9 9 9 8 8 8 8 8 8 8 8 8 8 9 9 9 10 10 10 10 11 12 13 14 14 15 15 15 15 15 15
12 11 11 10 10 10 10 9 9 9 9 9 8 8 8 8 8 8 8 8 8 8 8 8 8 8 8 9 9 9 10 10 10 11 12 13 14 14 15 15 15 15 15
11 11 11 10 10 10 10 9 9 9 9 9 8 8 8 8 8 8 8 8 8 8 8 8 8 8 8 8 9 9 9 10 10 10 11 12 13 13 14 14 14 15 15
11 11 10 10 10 10 9 9 9 9 8 8 8 8 8 8 8 8 8 8 8 8 8 8 8 8 8 8 8 8 9 9 10 10 10 11 12 12 13 14 14 14 14
11 10 10 10 10 9 9 9 9 9 8 8 8 8 8 8 8 8 8 8 8 8 8 8 8 7 7 7 8 8 8 9 9 10 10 10 11 12 12 13 13 13 14
10 10 10 10 9 9 9 9 9 8 8 8 8 8 8 8 8 8 7 7 8 8 8 8 8 7 7 7 7 7 8 8 9 9 10 10 11 11 12 12 13 13 13
10 10 10 9 9 9 9 9 9 8 8 8 8 8 8 8 8 8 7 7 7 7 7 7 7 7 7 7 7 7 7 8 8 9 9 10 10 11 11 12 12 12 13
10 10 10 9 9 9 9 9 8 8 8 8 8 8 8 8 8 8 7 7 7 7 7 7 7 7 7 7 7 7 7 7 8 8 9 9 10 10 11 11 12 12 12
10 10 9 9 9 9 9 9 8 8 8 8 8 8 8 8 8 7 7 7 7 7 7 7 7 7 7 7 6 6 7 7 8 8 8 9 9 10 10 10 11 11 12
10 10 9 9 9 9 9 8 8 8 8 8 8 8 8 8 8 7 7 7 7 7 7 7 7 6 7 6 6 6 6 7 7 8 8 9 9 9 10 10 10 11 11
10 10 9 9 9 9 8 8 8 8 8 8 8 8 8 8 8 7 7 7 7 6 6 7 7 6 6 6 6 6 6 7 7 7 8 8 9 9 10 10 10 10 11
10 10 9 9 9 8 8 8 8 8 8 8 8 8 8 8 7 7 7 7 6 6 6 6 6 6 6 6 6 6 6 6 6 7 7 8 8 9 9 10 10 10 10
11 10 9 9 9 8 8 8 8 8 8 8 8 8 8 8 8 7 7 7 6 6 6 6 6 6 6 6 6 6 6 6 6 7 7 8 8 9 9 9 10 10 10
11 10 10 9 9 9 8 8 8 8 8 8 8 8 8 8 8 7 7 7 6 6 6 6 6 6 6 6 6 6 6 6 6 7 7 8 8 8 9 9 9 9 10
11 10 10 9 9 9 9 9 8 8 8 8 8 8 8 8 8 7 7 7 6 6 6 6 6 6 6 6 6 6 6 6 6 7 7 8 8 8 8 8 9 9 9
11 10 10 9 9 9 9 9 9 9 8 8 8 8 8 8 7 7 7 7 6 6 6 6 6 6 6 6 6 6 6 6 6 7 7 7 8 8 8 8 8 9 9
11 10 10 9 9 9 8 8 9 9 9 9 8 8 8 8 7 7 7 7 6 6 6 6 6 6 6 6 6 6 6 6 6 7 7 7 8 8 8 8 8 8 9
11 10 10 9 9 9 8 8 8 8 8 9 9 8 8 8 7 7 7 7 7 6 6 6 6 6 6 6 6 6 6 6 7 7 7 7 7 8 8 8 8 8 8
11 10 10 9 9 9 8 8 8 8 8 8 8 8 8 8 7 7 7 7 7 7 6 6 6 6 6 7 7 7 7 7 7 7 7 7 8 8 8 8 8 8 9
11 10 10 9 9 9 8 8 8 8 8 8 8 8 8 8 8 7 7 7 7 7 7 7 7 7 7 7 7 7 7 7 7 7 7 7 8 8 8 8 8 8 9
11 10 10 9 9 8 8 8 8 8 8 8 8 8 8 7 7 7 7 7 7 7 7 7 7 7 7 7 7 7 7 7 7 7 8 8 8 8 8 8 8 8 8
11 10 10 9 9 8 8 8 8 8 8 8 8 8 8 8 8 7 7 7 7 7 7 7 7 7 7 7 7 7 7 7 8 8 8 8 8 8 8 8 8 8 8
11 10 9 9 8 8 8 8 8 8 8 8 8 8 8 8 8 8 7 7 7 7 7 7 7 7 7 7 7 7 8 8 8 8 8 8 8 8 8 8 8 8 8
10 10 9 9 8 8 8 8 8 8 8 8 8 8 8 8 8 7 7 7 7 7 7 7 7 7 7 7 7 7 8 8 8 8 8 8 8 8 8 8 8 8 8
10 9 9 8 8 8 8 8 8 8 8 8 8 8 8 8 8 7 7 7 7 7 7 7 7 7 7 7 7 8 8 8 8 8 8 8 8 8 8 8 8 8 8
9 9 8 8 7 7 7 8 8 8 8 8 8 8 8 8 8 7 7 7 7 7 7 7 7 7 7 7 7 8 8 8 8 8 8 8 8 8 8 8 8 8 8
Wind_Speed
6 6 6 6 6 6 6 7 7 7 7 8 8 8 8 8 7 6 7 7 7 7 6 6 7 6 5 5 5 5 5 5 7 6 3 4 5 4 2 2 3 5 7
6 6 6 6 6 6 7 8 7 8 8 8 8 9 9 9 8 8 9 9 8 9 9 8 9 7 7 6 5 6 6 6 6 8 5 4 4 3 1 2 2 2 3
6 6 6 7 7 7 8 8 8 8 8 9 8 9 10 10 10 9 10 10 10 10 10 10 10 9 9 7 7 7 6 7 6 6 5 3 3 2 0 2 4 3 3
5 6 7 7 7 8 8 8 8 8 9 9 9 10 10 10 11 11 11 11 11 11 10 10 10 10 10 10 8 8 7 7 7 6 6 4 4 3 2 2 3 2 3
5 6 8 8 7 7 8 8 8 9 10 9 10 10 10 10 10 11 11 11 11 11 11 11 11 12 14 11 9 8 8 7 7 6 6 4 4 3 4 3 4 4 3
6 7 7 7 7 8 8 8 9 9 10 9 10 11 11 10 12 15 14 12 12 13 13 12 11 13 15 16 17 15 13 10 9 8 7 6 6 5 4 4 5 5 4
6 7 7 7 8 8 9 8 9 10 9 10 11 11 11 13 15 17 17 13 12 13 13 12 11 11 12 11 13 16 16 17 15 11 10 9 7 6 6 7 7 6 4
7 8 8 7 8 9 8 9 10 9 9 10 11 11 11 13 15 15 16 12 12 13 13 13 13 13 12 12 12 12 12 12 14 13 11 11 9 7 6 6 6 6 5
7 8 8 7 8 9 10 10 10 9 10 10 10 11 12 13 14 14 13 9 9 12 12 12 13 13 14 15 13 13 13 11 12 14 14 13 12 11 7 5 7 8 5
8 8 7 7 8 10 10 11 9 9 10 10 11 11 11 12 14 14 12 7 9 10 10 10 14 15 15 15 13 13 14 12 11 10 11 12 11 11 11 9 8 9 6
7 7 7 8 8 10 10 9 10 10 10 10 11 11 11 12 13 14 12 7 7 8 9 9 9 13 15 16 15 13 14 12 10 10 9 9 8 8 9 9 8 8 8
6 7 8 8 8 8 9 10 9 9 10 10 10 11 9 9 10 11 12 11 9 8 9 9 9 11 13 15 13 14 15 13 9 9 8 9 8 9 8 9 9 7 5
6 8 8 9 9 8 9 10 9 8 8 8 8 9 10 8 7 11 12 11 10 8 8 10 11 12 11 10 12 14 12 10 9 9 10 9 9 9 8 7 7 6 6
7 8 7 8 9 9 8 7 8 8 8 8 9 9 9 9 8 6 5 6 7 7 6 7 9 10 8 7 7 7 8 8 9 9 9 8 7 7 8 8 7 7 6
7 8 8 8 9 9 9 8 9 9 9 10 9 9 9 10 9 8 6 6 5 5 5 4 4 4 4 4 5 6 7 8 9 8 8 8 7 8 8 8 8 8 7
7 7 6 7 7 8 9 10 10 12 14 16 16 14 11 13 15 13 12 11 10 8 5 5 5 5 5 6 6 6 7 8 8 8 8 8 8 8 9 8 8 8 8
8 7 6 7 7 8 8 8 11 11 11 12 12 12 13 14 14 13 12 10 9 7 5 7 6 6 6 6 6 6 7 7 7 7 8 8 8 8 8 9 9 9 9
7 8 8 7 7 7 8 8 8 9 11 10 10 12 12 12 11 10 8 5 5 5 6 7 7 6 6 6 6 6 6 6 7 7 7 7 7 8 9 9 10 10 9
7 6 6 7 7 7 8 8 8 9 9 10 10 10 9 8 7 6 4 4 6 6 6 7 7 7 6 6 6 6 6 6 7 7 7 7 7 8 8 9 9 12 10
6 9 8 7 7 7 7 7 7 8 8 9 9 8 7 5 5 5 4 5 6 7 7 7 7 7 6 6 5 5 6 6 7 7 7 7 8 8 9 10 10 10 10
6 6 8 7 6 6 7 7 7 8 8 8 9 9 9 7 7 7 6 6 7 7 7 7 7 7 6 6 6 6 7 6 6 7 7 8 9 9 8 9 10 10 10
5 5 5 6 6 6 7 7 7 7 8 9 9 9 10 6 6 7 7 7 7 6 6 6 6 6 6 7 7 7 7 7 7 7 8 8 8 8 8 9 9 10 11
5 5 5 6 6 7 7 6 6 7 7 8 8 8 7 7 6 6 7 7 6 6 5 5 6 6 6 7 7 8 8 8 8 9 9 8 8 8 9 10 11 12 12
5 5 5 5 5 5 6 7 6 7 7 7 7 7 7 7 7 7 7 6 5 5 5 4 5 7 8 7 6 7 8 8 8 9 11 10 9 9 9 10 11 12 13
5 4 4 5 5 5 6 6 6 6 7 7 7 7 7 7 7 7 7 6 6 5 6 5 4 5 6 7 7 7 8 10 9 8 9 9 11 11 11 12 11 12 12
5 4 3 3 4 5 5 6 6 7 7 7 6 7 7 7 7 8 7 6 6 5 5 4 4 3 3 3 4 5 6 8 9 10 9 9 10 10 12 10 13 12 14
Wind_Direction
259 260 267 269 269 271 269 270 273 277 279 279 280 282 281 279 273 262 259 260 258 261 263 260 263 262 259 255 246 241 241 240 262 280 281 304 305 293 270 208 197 198 208
261 265 267 272 277 276 274 275 277 278 279 279 281 281 280 279 274 269 270 268 257 258 260 258 261 263 256 254 246 241 239 236 246 272 285 295 298 298 251 143 118 118 139
267 268 275 278 277 274 275 279 281 279 281 283 280 279 279 280 278 273 269 269 263 258 255 253 255 255 256 253 248 245 243 244 238 253 272 279 287 280 199 116 107 98 97
267 266 272 274 272 273 276 279 280 280 280 281 280 278 277 278 277 275 272 270 268 264 256 251 250 246 247 249 247 244 243 244 241 244 257 265 269 267 210 166 141 126 115
265 269 270 274 274 274 277 278 281 280 281 279 282 281 278 276 272 269 268 270 269 269 264 255 249 246 244 242 239 237 236 237 237 236 244 251 252 241 217 179 165 146 120
261 268 274 279 279 277 278 281 284 283 282 281 279 279 279 275 270 270 271 271 271 270 270 266 258 257 254 251 247 240 228 228 231 231 232 233 240 239 228 195 166 164 160
262 270 276 276 278 279 283 286 285 284 282 283 281 277 275 273 270 272 273 272 268 267 266 266 265 259 250 245 247 248 243 233 225 226 230 227 229 228 221 207 191 174 159
266 272 276 276 279 282 283 284 283 282 282 282 282 280 278 276 272 271 274 273 268 265 262 259 258 258 253 244 244 246 245 242 234 232 231 229 227 221 221 224 193 149 117
266 269 273 274 279 284 286 285 285 284 285 283 281 280 278 280 276 273 273 271 266 266 263 259 254 255 248 238 241 246 247 247 241 232 226 226 222 216 208 204 182 170 161
261 265 270 272 275 280 282 284 284 282 284 287 284 279 275 277 277 275 274 265 265 268 267 262 254 251 247 236 238 240 243 242 238 232 224 225 223 219 209 210 198 187 167
258 264 271 273 274 277 278 278 283 286 287 286 285 284 279 273 275 274 271 256 254 265 268 268 259 247 244 240 233 235 235 233 232 226 220 217 214 214 213 211 207 198 185
256 263 271 277 279 284 280 284 284 285 288 289 290 291 285 275 267 271 269 261 252 255 263 266 264 255 250 246 237 230 226 222 227 221 215 212 210 210 210 208 206 205 197
252 262 273 282 284 282 280 284 290 287 284 288 289 290 292 289 276 266 269 269 268 261 261 261 265 264 260 252 238 224 216 216 214 216 214 211 209 207 201 201 199 187 163
253 267 277 286 291 291 284 278 281 284 285 287 287 287 290 291 287 278 268 269 275 277 274 272 270 266 252 244 236 221 215 211 210 215 215 209 200 199 199 193 192 180 164
253 266 278 282 286 292 291 281 277 272 264 269 280 279 282 285 281 266 264 268 270 275 286 278 269 265 252 240 232 221 212 209 213 216 213 204 198 198 198 192 188 180 177
252 266 274 282 288 290 298 303 281 266 271 264 256 256 264 259 271 278 270 265 265 270 266 262 267 258 249 241 229 219 211 211 212 209 205 200 196 197 194 190 186 186 181
242 260 273 280 286 292 298 302 309 310 299 287 276 271 263 270 274 274 269 265 261 250 245 255 258 256 247 241 230 222 218 210 205 201 201 197 192 193 193 192 188 187 184
241 259 268 273 281 287 291 293 294 299 307 309 304 296 291 288 284 278 265 252 254 230 238 250 254 254 246 238 230 224 220 206 201 203 200 195 191 191 193 192 189 187 181
239 253 264 273 278 283 288 291 293 294 294 296 302 305 301 298 290 274 235 231 251 254 247 247 250 249 246 239 232 221 216 210 204 201 201 198 194 194 193 192 188 180 176
240 256 269 276 284 290 293 294 298 301 301 300 299 301 306 303 293 280 243 241 250 255 254 250 248 244 239 236 229 217 210 207 203 202 199 198 198 199 196 189 186 182 181
237 259 275 281 280 285 291 293 296 299 299 300 298 296 292 288 286 283 275 260 255 257 256 252 247 242 235 229 226 219 214 213 207 201 198 198 198 198 195 191 187 183 177
226 249 264 274 280 286 291 292 294 295 298 301 305 307 302 290 287 286 281 274 266 258 256 251 247 241 233 226 220 216 215 215 210 204 200 196 196 194 190 188 186 182 176
216 244 263 272 279 287 293 294 297 300 302 304 306 309 312 308 304 302 300 294 285 272 262 256 254 250 239 229 222 215 213 215 208 198 194 191 190 191 189 186 183 180 178
210 236 257 273 283 288 292 298 302 305 307 307 308 311 312 310 308 309 309 302 293 283 272 267 264 259 248 233 222 217 215 213 204 198 192 188 188 189 186 186 183 182 180
204 227 248 266 280 287 294 300 307 312 313 310 312 315 318 319 318 317 315 311 305 299 295 291 283 275 257 240 228 223 212 204 201 194 190 189 190 190 186 185 182 178 177
197 217 241 264 279 287 295 304 310 315 316 318 320 323 325 327 326 325 325 326 324 320 318 314 310 301 278 256 240 224 201 196 195 193 190 189 189 190 186 184 182 180 177
Height
1508 1507 1505 1503 1501 1498 1496 1493 1491 1488 1486 1484 1481 1479 1477 1476 1475 1473 1472 1471 1470 1469 1469 1468 1468 1468 1468 1469 1470 1470 1471 1471 1469 1467 1469 1469 1470 1471 1472 1473 1475 1477 1480
1505 1503 1501 1499 1497 1494 1492 1489 1486 1484 1481 1479 1476 1474 1472 1470 1469 1468 1466 1465 1464 1463 1463 1462 1462 1462 1462 1463 1463 1464 1465 1466 1465 1464 1464 1465 1466 1467 1469 1470 1471 1474 1476
1501 1499 1497 1495 1492 1490 1487 1484 1482 1479 1476 1474 1471 1468 1466 1465 1463 1462 1460 1459 1458 1457 1456 1456 1456 1456 1455 1456 1457 1458 1459 1460 1461 1460 1460 1461 1462 1463 1465 1466 1468 1470 1473
1497 1495 1493 1490 1488 1485 1482 1479 1476 1473 1470 1468 1465 1463 1461 1459 1457 1456 1454 1453 1451 1450 1450 1449 1449 1449 1449 1449 1450 1451 1452 1454 1455 1455 1456 1457 1458 1459 1461 1463 1465 1468 1470
1492 1490 1488 1485 1483 1480 1477 1474 1471 1468 1465 1462 1459 1457 1455 1453 1451 1450 1448 1446 1445 1443 1442 1442 1441 1441 1442 1442 1443 1444 1446 1447 1449 1450 1451 1452 1453 1456 1458 1460 1462 1465 1467
1488 1486 1483 1481 1478 1475 1472 1469 1465 1462 1459 1456 1453 1451 1449 1447 1445 1444 1442 1439 1438 1436 1435 1434 1434 1434 1434 1435 1436 1437 1439 1440 1442 1444 1445 1447 1449 1451 1453 1456 1459 1461 1464
1484 1481 1479 1476 1473 1470 1466 1463 1460 1456 1453 1450 1448 1445 1443 1441 1439 1437 1435 1433 1431 1429 1428 1427 1426 1426 1427 1427 1428 1430 1431 1433 1436 1438 1439 1441 1444 1446 1449 1451 1454 1457 1460
1479 1477 1474 1471 1468 1464 1461 1458 1454 1451 1447 1445 1442 1440 1437 1435 1433 1431 1429 1426 1424 1422 1421 1420 1419 1418 1419 1420 1420 1421 1423 1425 1428 1430 1433 1436 1439 1441 1443 1446 1449 1452 1456
1474 1472 1469 1466 1462 1459 1455 1452 1449 1445 1442 1439 1437 1434 1431 1429 1427 1425 1422 1419 1417 1415 1414 1413 1412 1411 1411 1412 1412 1413 1414 1417 1420 1423 1426 1429 1433 1436 1438 1441 1443 1447 1450
1470 1467 1464 1461 1457 1454 1450 1447 1444 1440 1437 1434 1431 1429 1426 1423 1421 1418 1416 1413 1410 1408 1407 1405 1404 1404 1403 1404 1404 1405 1406 1409 1413 1416 1419 1422 1426 1429 1432 1435 1438 1441 1445
1465 1462 1459 1456 1452 1448 1445 1442 1438 1435 1432 1429 1426 1423 1421 1418 1414 1412 1410 1407 1404 1402 1400 1398 1397 1397 1396 1396 1396 1397 1399 1403 1406 1409 1412 1415 1419 1422 1426 1429 1432 1436 1440
1460 1457 1454 1451 1447 1443 1440 1436 1433 1430 1427 1424 1421 1418 1415 1412 1409 1406 1403 1401 1398 1395 1393 1392 1391 1390 1389 1389 1389 1390 1393 1396 1398 1401 1405 1408 1411 1415 1419 1423 1427 1430 1435
1455 1452 1449 1446 1442 1439 1435 1432 1428 1425 1422 1419 1415 1412 1409 1406 1403 1400 1397 1395 1392 1390 1388 1386 1385 1384 1383 1382 1383 1384 1386 1389 1392 1394 1397 1401 1406 1410 1414 1418 1422 1426 1430
1451 1448 1445 1441 1438 1434 1431 1427 1423 1420 1417 1414 1410 1407 1404 1401 1398 1395 1392 1389 1387 1385 1383 1381 1380 1379 1378 1377 1377 1379 1380 1383 1386 1389 1392 1397 1401 1404 1407 1412 1415 1419 1424
1446 1443 1440 1436 1433 1429 1426 1422 1419 1415 1413 1409 1405 1402 1399 1395 1393 1390 1387 1384 1382 1380 1378 1377 1376 1375 1374 1373 1373 1374 1376 1378 1381 1384 1387 1391 1395 1398 1402 1406 1410 1415 1419
1441 1438 1435 1432 1428 1424 1421 1417 1414 1411 1408 1405 1401 1398 1394 1391 1387 1385 1382 1379 1377 1376 1374 1372 1371 1371 1370 1370 1370 1370 1372 1374 1376 1379 1383 1386 1390 1393 1397 1401 1405 1409 1414
1436 1433 1430 1427 1423 1420 1416 1412 1408 1406 1404 1401 1397 1393 1389 1385 1382 1380 1377 1375 1373 1371 1370 1368 1367 1367 1367 1366 1366 1367 1368 1370 1373 1376 1379 1382 1385 1389 1393 1396 1400 1404 1409
1432 1429 1425 1422 1419 1416 1412 1408 1405 1401 1398 1394 1392 1388 1384 1381 1378 1375 1373 1371 1369 1367 1365 1364 1363 1363 1363 1363 1363 1364 1365 1367 1369 1372 1375 1379 1382 1385 1388 1392 1395 1400 1404
1427 1424 1421 1418 1415 1411 1408 1404 1401 1398 1394 1390 1387 1383 1380 1377 1374 1371 1369 1367 1364 1363 1361 1360 1359 1359 1359 1359 1360 1361 1362 1364 1366 1369 1372 1375 1378 1381 1385 1388 1392 1396 1400
1422 1419 1416 1413 1410 1407 1404 1400 1397 1394 1391 1387 1383 1380 1376 1373 1370 1367 1365 1363 1360 1358 1357 1356 1355 1354 1355 1355 1356 1357 1359 1361 1363 1366 1369 1372 1375 1378 1381 1385 1388 1392 1396
1417 1415 1412 1409 1406 1403 1400 1396 1393 1390 1387 1384 1381 1377 1374 1370 1366 1364 1361 1359 1356 1354 1352 1351 1350 1350 1351 1351 1352 1354 1355 1357 1360 1362 1365 1368 1371 1375 1378 1382 1385 1389 1393
1412 1410 1407 1404 1401 1398 1396 1393 1390 1387 1384 1381 1377 1374 1371 1367 1363 1360 1357 1354 1352 1350 1348 1347 1346 1346 1346 1347 1348 1349 1351 1353 1356 1358 1362 1365 1368 1371 1375 1378 1382 1385 1389
1406 1404 1402 1399 1397 1394 1391 1389 1386 1384 1381 1378 1375 1371 1368 1364 1361 1357 1354 1350 1348 1346 1344 1343 1342 1341 1342 1342 1343 1345 1347 1349 1352 1355 1358 1361 1364 1367 1371 1374 1378 1382 1386
1400 1398 1396 1394 1392 1390 1387 1385 1383 1381 1378 1375 1372 1369 1366 1362 1358 1355 1351 1347 1344 1342 1340 1338 1337 1337 1337 1337 1338 1340 1342 1345 1347 1350 1354 1357 1360 1364 1368 1371 1375 1379 1383
1394 1393 1391 1389 1387 1385 1383 1381 1380 1378 1375 1373 1370 1367 1363 1360 1356 1352 1348 1345 1341 1338 1336 1334 1333 1332 1332 1332 1333 1335 1337 1340 1343 1346 1349 1353 1357 1360 1364 1368 1371 1375 1379
1388 1387 1386 1384 1383 1381 1379 1378 1376 1375 1373 1370 1368 1364 1361 1358 1354 1350 1346 1342 1339 1336 1334 1332 1330 1329 1328 1328 1329 1330 1332 1335 1338 1341 1345 1349 1352 1356 1360 1364 1368 1372 1376